QPF
0.07 0.11 0.15 0.17 0.17 0.17 0.16 0.16 0.13 0.10 0.09 0.08 0.07 0.07 0.06 0.04 0.04 0.03 0.04 0.03 0.02 0.02 0.02 0.02 0.03 0.02 0.02 0.02 0.01 0.01 0.01 0.01 0.00 0.00 0.01 0.01 0.00 0.00 0.01 0.01 0.01 0.02 0.03
0.06 0.09 0.11 0.16 0.19 0.17 0.14 0.15 0.11 0.09 0.09 0.08 0.07 0.06 0.05 0.03 0.03 0.02 0.02 0.02 0.01 0.02 0.02 0.02 0.01 0.01 0.02 0.02 0.01 0.01 0.01 0.01 0.01 0.01 0.01 0.01 0.00 0.00 0.00 0.00 0.00 0.02 0.03
0.04 0.08 0.10 0.13 0.14 0.11 0.09 0.11 0.10 0.09 0.07 0.07 0.05 0.03 0.03 0.02 0.02 0.02 0.02 0.01 0.01 0.01 0.01 0.02 0.02 0.01 0.01 0.01 0.01 0.01 0.01 0.01 0.01 0.01 0.01 0.01 0.01 0.00 0.00 0.00 0.00 0.01 0.02
0.03 0.07 0.08 0.10 0.12 0.10 0.08 0.10 0.10 0.07 0.05 0.04 0.03 0.03 0.02 0.02 0.01 0.01 0.01 0.01 0.01 0.01 0.01 0.01 0.01 0.01 0.01 0.01 0.00 0.00 0.01 0.01 0.01 0.01 0.01 0.01 0.01 0.01 0.00 0.00 0.00 0.00 0.01
0.02 0.04 0.08 0.08 0.09 0.08 0.09 0.07 0.06 0.05 0.05 0.04 0.03 0.02 0.02 0.01 0.01 0.00 0.00 0.01 0.01 0.01 0.01 0.01 0.01 0.01 0.00 0.00 0.01 0.00 0.00 0.00 0.01 0.01 0.01 0.01 0.01 0.01 0.01 0.01 0.00 0.00 0.00
0.02 0.03 0.06 0.05 0.06 0.06 0.08 0.06 0.05 0.04 0.03 0.03 0.03 0.02 0.01 0.01 0.00 0.00 0.00 0.00 0.00 0.01 0.01 0.00 0.00 0.00 0.00 0.01 0.01 0.00 0.00 0.00 0.00 0.01 0.00 0.00 0.00 0.01 0.01 0.01 0.01 0.00 0.00
0.01 0.03 0.04 0.04 0.07 0.05 0.05 0.04 0.03 0.02 0.02 0.02 0.02 0.01 0.01 0.01 0.01 0.01 0.01 0.00 0.00 0.00 0.00 0.00 0.00 0.01 0.01 0.01 0.00 0.00 0.00 0.00 0.01 0.00 0.00 0.00 0.00 0.00 0.00 0.00 0.00 0.00 0.00
0.01 0.02 0.03 0.03 0.05 0.06 0.04 0.03 0.02 0.02 0.03 0.02 0.01 0.01 0.01 0.00 0.00 0.00 0.00 0.00 0.01 0.01 0.00 0.00 0.00 0.01 0.01 0.00 0.00 0.00 0.00 0.00 0.00 0.00 0.00 0.00 0.00 0.00 0.00 0.00 0.00 0.00 0.00
0.00 0.01 0.02 0.02 0.03 0.04 0.03 0.02 0.02 0.01 0.01 0.01 0.01 0.01 0.01 0.00 0.00 0.00 0.00 0.00 0.00 0.00 0.00 0.00 0.00 0.00 0.00 0.00 0.00 0.00 0.00 0.00 0.00 0.00 0.00 0.00 0.00 0.00 0.00 0.00 0.01 0.01 0.01
0.00 0.00 0.00 0.01 0.01 0.02 0.02 0.01 0.01 0.01 0.01 0.01 0.01 0.00 0.00 0.00 0.01 0.00 0.00 0.00 0.00 0.00 0.00 0.00 0.00 0.00 0.00 0.00 0.00 0.00 0.00 0.00 0.00 0.00 0.00 0.00 0.00 0.00 0.00 0.00 0.00 0.01 0.01
0.00 0.00 0.00 0.00 0.01 0.01 0.01 0.01 0.01 0.01 0.01 0.01 0.01 0.01 0.00 0.00 0.00 0.00 0.00 0.00 0.00 0.00 0.00 0.00 0.00 0.00 0.00 0.00 0.00 0.00 0.00 0.00 0.00 0.00 0.00 0.00 0.00 0.00 0.00 0.00 0.00 0.00 0.01
0.00 0.00 0.00 0.00 0.00 0.00 0.00 0.00 0.00 0.00 0.01 0.01 0.00 0.00 0.00 0.00 0.00 0.00 0.00 0.00 0.00 0.00 0.00 0.00 0.00 0.00 0.00 0.00 0.00 0.00 0.00 0.00 0.00 0.00 0.00 0.00 0.00 0.00 0.00 0.00 0.00 0.00 0.01
0.00 0.00 0.00 0.00 0.00 0.00 0.00 0.00 0.00 0.00 0.00 0.00 0.00 0.01 0.00 0.00 0.00 0.00 0.00 0.00 0.00 0.00 0.00 0.00 0.00 0.00 0.00 0.00 0.00 0.00 0.00 0.00 0.00 0.00 0.00 0.00 0.00 0.00 0.00 0.01 0.01 0.01 0.00
0.00 0.00 0.00 0.00 0.00 0.00 0.00 0.00 0.00 0.00 0.00 0.01 0.01 0.01 0.01 0.01 0.01 0.01 0.00 0.00 0.00 0.00 0.00 0.00 0.00 0.00 0.00 0.00 0.00 0.00 0.00 0.00 0.00 0.00 0.00 0.00 0.00 0.00 0.01 0.01 0.01 0.01 0.01
0.00 0.00 0.00 0.00 0.00 0.00 0.00 0.00 0.00 0.00 0.00 0.00 0.01 0.00 0.00 0.01 0.02 0.02 0.01 0.01 0.00 0.00 0.00 0.00 0.00 0.00 0.00 0.00 0.00 0.00 0.00 0.00 0.00 0.00 0.00 0.00 0.00 0.00 0.00 0.00 0.00 0.01 0.01
0.00 0.00 0.00 0.00 0.00 0.00 0.00 0.00 0.00 0.00 0.00 0.00 0.00 0.00 0.00 0.01 0.01 0.01 0.01 0.01 0.01 0.00 0.00 0.00 0.00 0.00 0.00 0.00 0.00 0.00 0.00 0.00 0.00 0.00 0.00 0.00 0.00 0.00 0.00 0.00 0.00 0.00 0.01
0.01 0.01 0.01 0.00 0.00 0.00 0.00 0.00 0.00 0.00 0.00 0.00 0.00 0.00 0.01 0.01 0.01 0.01 0.01 0.01 0.01 0.01 0.01 0.01 0.00 0.00 0.00 0.00 0.00 0.00 0.00 0.00 0.00 0.00 0.00 0.00 0.00 0.00 0.00 0.00 0.00 0.00 0.00
0.01 0.01 0.01 0.00 0.00 0.00 0.00 0.01 0.01 0.01 0.01 0.01 0.01 0.01 0.01 0.01 0.01 0.01 0.01 0.01 0.01 0.01 0.01 0.01 0.00 0.00 0.00 0.00 0.00 0.00 0.00 0.00 0.00 0.00 0.00 0.00 0.00 0.00 0.01 0.01 0.01 0.00 0.01
0.01 0.01 0.01 0.01 0.00 0.01 0.01 0.01 0.02 0.01 0.01 0.01 0.01 0.01 0.01 0.01 0.01 0.00 0.01 0.01 0.01 0.01 0.01 0.01 0.01 0.01 0.01 0.01 0.00 0.00 0.00 0.00 0.00 0.01 0.01 0.00 0.00 0.00 0.00 0.00 0.01 0.01 0.01
0.01 0.01 0.01 0.02 0.01 0.01 0.01 0.01 0.01 0.01 0.01 0.01 0.01 0.01 0.01 0.01 0.01 0.01 0.01 0.01 0.01 0.01 0.01 0.01 0.01 0.01 0.01 0.01 0.00 0.00 0.00 0.00 0.01 0.01 0.01 0.01 0.00 0.00 0.00 0.00 0.01 0.01 0.01
0.01 0.01 0.01 0.01 0.01 0.01 0.01 0.01 0.01 0.01 0.01 0.02 0.01 0.01 0.02 0.02 0.01 0.01 0.01 0.01 0.01 0.01 0.01 0.01 0.01 0.01 0.01 0.01 0.01 0.00 0.00 0.01 0.01 0.01 0.01 0.01 0.01 0.01 0.00 0.00 0.00 0.00 0.01
0.01 0.01 0.01 0.01 0.02 0.02 0.01 0.01 0.01 0.02 0.02 0.02 0.02 0.02 0.02 0.02 0.02 0.02 0.01 0.02 0.02 0.02 0.02 0.02 0.01 0.01 0.01 0.01 0.01 0.01 0.01 0.01 0.01 0.01 0.00 0.01 0.01 0.00 0.00 0.00 0.00 0.00 0.00
0.01 0.02 0.02 0.02 0.02 0.02 0.01 0.01 0.01 0.02 0.02 0.02 0.01 0.01 0.01 0.01 0.01 0.01 0.01 0.02 0.02 0.02 0.02 0.03 0.03 0.02 0.02 0.02 0.01 0.01 0.01 0.01 0.01 0.00 0.00 0.00 0.00 0.00 0.00 0.00 0.00 0.00 0.00
0.02 0.02 0.03 0.02 0.03 0.03 0.02 0.02 0.02 0.01 0.01 0.01 0.01 0.01 0.01 0.01 0.01 0.01 0.02 0.02 0.02 0.02 0.03 0.03 0.02 0.02 0.02 0.02 0.02 0.02 0.02 0.01 0.01 0.00 0.00 0.00 0.00 0.00 0.00 0.00 0.00 0.00 0.00
0.04 0.04 0.03 0.03 0.03 0.03 0.02 0.02 0.01 0.01 0.01 0.01 0.01 0.01 0.01 0.01 0.01 0.02 0.02 0.02 0.03 0.03 0.03 0.03 0.03 0.02 0.02 0.01 0.01 0.01 0.01 0.01 0.01 0.01 0.01 0.00 0.00 0.00 0.00 0.00 0.01 0.01 0.01
0.02 0.03 0.03 0.03 0.03 0.03 0.03 0.03 0.02 0.01 0.01 0.01 0.01 0.02 0.02 0.02 0.02 0.02 0.02 0.02 0.02 0.01 0.01 0.01 0.01 0.01 0.00 0.00 0.00 0.00 0.00 0.00 0.00 0.01 0.01 0.01 0.02 0.02 0.01 0.02 0.02 0.03 0.02
MSLP
1013.78 1014.04 1014.29 1014.53 1014.75 1014.96 1015.16 1015.35 1015.54 1015.72 1015.89 1016.05 1016.20 1016.35 1016.51 1016.69 1016.91 1017.16 1017.44 1017.74 1018.03 1018.31 1018.55 1018.75 1018.92 1019.06 1019.19 1019.32 1019.46 1019.60 1019.73 1019.84 1019.91 1019.92 1019.87 1019.77 1019.64 1019.49 1019.33 1019.19 1019.06 1018.95 1018.84
1013.68 1014.03 1014.34 1014.60 1014.82 1014.99 1015.15 1015.29 1015.44 1015.61 1015.78 1015.96 1016.15 1016.34 1016.54 1016.75 1016.97 1017.21 1017.47 1017.74 1018.01 1018.28 1018.53 1018.75 1018.96 1019.14 1019.30 1019.45 1019.60 1019.73 1019.85 1019.94 1019.99 1020.00 1019.96 1019.87 1019.75 1019.60 1019.44 1019.27 1019.10 1018.91 1018.71
1013.45 1013.88 1014.25 1014.54 1014.75 1014.90 1015.02 1015.14 1015.27 1015.43 1015.63 1015.86 1016.11 1016.36 1016.61 1016.85 1017.09 1017.32 1017.56 1017.80 1018.05 1018.30 1018.55 1018.80 1019.03 1019.24 1019.43 1019.61 1019.76 1019.89 1019.99 1020.06 1020.09 1020.08 1020.03 1019.95 1019.84 1019.70 1019.53 1019.35 1019.14 1018.89 1018.62
1013.10 1013.59 1014.01 1014.32 1014.54 1014.68 1014.78 1014.89 1015.02 1015.21 1015.46 1015.75 1016.07 1016.40 1016.71 1016.99 1017.25 1017.48 1017.70 1017.91 1018.13 1018.37 1018.61 1018.86 1019.11 1019.35 1019.57 1019.77 1019.93 1020.05 1020.13 1020.18 1020.19 1020.16 1020.11 1020.02 1019.92 1019.78 1019.62 1019.42 1019.19 1018.91 1018.58
1012.64 1013.17 1013.63 1013.96 1014.20 1014.34 1014.45 1014.57 1014.73 1014.96 1015.26 1015.63 1016.03 1016.43 1016.81 1017.14 1017.42 1017.65 1017.86 1018.04 1018.23 1018.44 1018.67 1018.93 1019.19 1019.45 1019.69 1019.90 1020.07 1020.19 1020.26 1020.29 1020.27 1020.23 1020.17 1020.09 1019.98 1019.86 1019.70 1019.50 1019.25 1018.95 1018.59
1012.10 1012.66 1013.14 1013.51 1013.76 1013.93 1014.07 1014.21 1014.41 1014.69 1015.06 1015.49 1015.96 1016.44 1016.88 1017.25 1017.56 1017.79 1017.99 1018.15 1018.32 1018.50 1018.72 1018.97 1019.24 1019.51 1019.77 1019.99 1020.16 1020.28 1020.34 1020.36 1020.33 1020.28 1020.21 1020.12 1020.03 1019.91 1019.75 1019.56 1019.31 1019.00 1018.63
1011.54 1012.11 1012.61 1013.00 1013.29 1013.49 1013.66 1013.84 1014.09 1014.42 1014.84 1015.33 1015.86 1016.39 1016.88 1017.29 1017.62 1017.87 1018.05 1018.21 1018.36 1018.53 1018.73 1018.98 1019.24 1019.52 1019.78 1020.01 1020.19 1020.30 1020.36 1020.37 1020.34 1020.28 1020.20 1020.12 1020.03 1019.91 1019.77 1019.58 1019.33 1019.03 1018.67
1011.00 1011.56 1012.07 1012.49 1012.81 1013.06 1013.27 1013.50 1013.79 1014.16 1014.62 1015.15 1015.71 1016.28 1016.79 1017.24 1017.59 1017.85 1018.05 1018.20 1018.35 1018.52 1018.71 1018.95 1019.21 1019.48 1019.74 1019.97 1020.14 1020.26 1020.31 1020.31 1020.28 1020.22 1020.14 1020.06 1019.97 1019.86 1019.72 1019.54 1019.31 1019.01 1018.67
1010.50 1011.05 1011.56 1012.01 1012.37 1012.66 1012.93 1013.20 1013.52 1013.92 1014.40 1014.95 1015.52 1016.10 1016.63 1017.09 1017.47 1017.75 1017.97 1018.14 1018.30 1018.47 1018.67 1018.90 1019.15 1019.41 1019.66 1019.87 1020.04 1020.14 1020.19 1020.19 1020.15 1020.09 1020.02 1019.93 1019.84 1019.74 1019.60 1019.43 1019.20 1018.93 1018.61
1010.04 1010.58 1011.10 1011.56 1011.96 1012.30 1012.61 1012.92 1013.28 1013.70 1014.18 1014.73 1015.30 1015.87 1016.41 1016.88 1017.27 1017.59 1017.84 1018.04 1018.23 1018.41 1018.61 1018.84 1019.08 1019.32 1019.55 1019.74 1019.89 1019.98 1020.02 1020.01 1019.97 1019.90 1019.83 1019.74 1019.65 1019.55 1019.41 1019.24 1019.03 1018.77 1018.47
1009.63 1010.14 1010.65 1011.13 1011.56 1011.95 1012.30 1012.66 1013.04 1013.47 1013.95 1014.48 1015.04 1015.60 1016.14 1016.62 1017.03 1017.38 1017.67 1017.91 1018.13 1018.34 1018.56 1018.78 1019.01 1019.22 1019.42 1019.58 1019.70 1019.77 1019.79 1019.78 1019.73 1019.66 1019.58 1019.50 1019.40 1019.30 1019.16 1019.00 1018.80 1018.55 1018.27
1009.22 1009.70 1010.20 1010.68 1011.14 1011.56 1011.96 1012.35 1012.76 1013.20 1013.68 1014.20 1014.74 1015.29 1015.82 1016.31 1016.75 1017.13 1017.47 1017.76 1018.02 1018.26 1018.49 1018.71 1018.92 1019.11 1019.27 1019.40 1019.49 1019.53 1019.53 1019.50 1019.45 1019.37 1019.29 1019.21 1019.11 1019.00 1018.87 1018.72 1018.52 1018.30 1018.04
1008.81 1009.24 1009.71 1010.19 1010.65 1011.10 1011.53 1011.96 1012.39 1012.85 1013.34 1013.85 1014.38 1014.92 1015.44 1015.95 1016.41 1016.83 1017.21 1017.55 1017.85 1018.12 1018.37 1018.59 1018.78 1018.94 1019.07 1019.17 1019.22 1019.24 1019.22 1019.18 1019.12 1019.05 1018.97 1018.88 1018.79 1018.68 1018.56 1018.41 1018.23 1018.02 1017.79
1008.41 1008.77 1009.19 1009.63 1010.09 1010.54 1011.00 1011.46 1011.92 1012.40 1012.89 1013.41 1013.94 1014.47 1015.00 1015.51 1016.00 1016.46 1016.88 1017.25 1017.59 1017.89 1018.15 1018.37 1018.55 1018.69 1018.80 1018.86 1018.89 1018.89 1018.86 1018.81 1018.74 1018.67 1018.60 1018.51 1018.42 1018.33 1018.21 1018.08 1017.92 1017.74 1017.53
1008.04 1008.31 1008.66 1009.04 1009.47 1009.92 1010.38 1010.85 1011.34 1011.84 1012.35 1012.88 1013.41 1013.94 1014.48 1015.00 1015.50 1015.98 1016.43 1016.84 1017.20 1017.52 1017.80 1018.02 1018.20 1018.32 1018.41 1018.46 1018.47 1018.46 1018.42 1018.37 1018.31 1018.24 1018.17 1018.10 1018.02 1017.93 1017.83 1017.72 1017.58 1017.43 1017.25
1007.74 1007.92 1008.16 1008.48 1008.85 1009.26 1009.72 1010.20 1010.70 1011.21 1011.74 1012.27 1012.81 1013.34 1013.88 1014.40 1014.91 1015.40 1015.86 1016.29 1016.67 1017.00 1017.29 1017.52 1017.70 1017.82 1017.91 1017.95 1017.96 1017.94 1017.91 1017.86 1017.81 1017.74 1017.68 1017.62 1017.55 1017.47 1017.39 1017.29 1017.18 1017.06 1016.92
1007.57 1007.64 1007.78 1008.00 1008.30 1008.67 1009.09 1009.56 1010.06 1010.58 1011.11 1011.64 1012.18 1012.71 1013.23 1013.74 1014.25 1014.73 1015.20 1015.62 1016.02 1016.36 1016.65 1016.89 1017.08 1017.21 1017.30 1017.35 1017.36 1017.35 1017.32 1017.28 1017.23 1017.18 1017.12 1017.06 1016.99 1016.93 1016.86 1016.78 1016.70 1016.60 1016.49
1007.57 1007.54 1007.58 1007.71 1007.92 1008.23 1008.60 1009.04 1009.52 1010.03 1010.55 1011.07 1011.58 1012.09 1012.59 1013.09 1013.57 1014.04 1014.48 1014.91 1015.29 1015.64 1015.94 1016.19 1016.39 1016.54 1016.64 1016.70 1016.72 1016.72 1016.69 1016.65 1016.60 1016.54 1016.48 1016.42 1016.36 1016.29 1016.23 1016.16 1016.09 1016.01 1015.93
1007.76 1007.65 1007.60 1007.64 1007.77 1008.01 1008.33 1008.72 1009.16 1009.64 1010.13 1010.62 1011.10 1011.58 1012.04 1012.50 1012.95 1013.38 1013.81 1014.21 1014.59 1014.93 1015.24 1015.50 1015.71 1015.87 1015.98 1016.05 1016.08 1016.08 1016.05 1016.00 1015.94 1015.86 1015.79 1015.71 1015.64 1015.57 1015.50 1015.44 1015.38 1015.31 1015.23
1008.12 1007.95 1007.84 1007.81 1007.88 1008.05 1008.31 1008.65 1009.04 1009.47 1009.91 1010.35 1010.79 1011.22 1011.64 1012.04 1012.45 1012.84 1013.23 1013.61 1013.97 1014.31 1014.61 1014.87 1015.09 1015.26 1015.38 1015.45 1015.48 1015.46 1015.42 1015.34 1015.25 1015.16 1015.05 1014.95 1014.86 1014.78 1014.70 1014.64 1014.57 1014.50 1014.43
1008.59 1008.41 1008.27 1008.21 1008.23 1008.35 1008.55 1008.83 1009.16 1009.53 1009.91 1010.30 1010.68 1011.05 1011.41 1011.76 1012.11 1012.47 1012.82 1013.16 1013.50 1013.82 1014.11 1014.37 1014.59 1014.75 1014.87 1014.93 1014.93 1014.89 1014.81 1014.70 1014.57 1014.43 1014.29 1014.16 1014.05 1013.95 1013.86 1013.78 1013.71 1013.64 1013.56
1009.13 1008.97 1008.83 1008.76 1008.76 1008.85 1009.01 1009.23 1009.51 1009.81 1010.13 1010.45 1010.76 1011.07 1011.37 1011.66 1011.96 1012.26 1012.57 1012.88 1013.18 1013.48 1013.75 1014.00 1014.19 1014.34 1014.43 1014.46 1014.44 1014.35 1014.23 1014.07 1013.89 1013.70 1013.52 1013.36 1013.21 1013.09 1013.00 1012.92 1012.84 1012.76 1012.68
1009.68 1009.56 1009.46 1009.41 1009.41 1009.48 1009.60 1009.78 1010.00 1010.24 1010.50 1010.75 1010.99 1011.23 1011.47 1011.71 1011.95 1012.20 1012.46 1012.73 1013.00 1013.26 1013.50 1013.71 1013.88 1013.99 1014.04 1014.03 1013.95 1013.82 1013.64 1013.42 1013.18 1012.95 1012.73 1012.53 1012.36 1012.23 1012.13 1012.04 1011.97 1011.89 1011.80
1010.18 1010.13 1010.08 1010.06 1010.08 1010.15 1010.26 1010.41 1010.58 1010.76 1010.95 1011.14 1011.32 1011.50 1011.68 1011.86 1012.04 1012.24 1012.45 1012.67 1012.90 1013.11 1013.31 1013.47 1013.59 1013.65 1013.65 1013.58 1013.44 1013.25 1013.00 1012.73 1012.44 1012.16 1011.89 1011.67 1011.48 1011.34 1011.24 1011.17 1011.10 1011.04 1010.95
1010.64 1010.65 1010.66 1010.68 1010.73 1010.81 1010.91 1011.02 1011.16 1011.29 1011.42 1011.55 1011.67 1011.79 1011.91 1012.04 1012.17 1012.32 1012.48 1012.64 1012.81 1012.96 1013.10 1013.20 1013.26 1013.26 1013.20 1013.06 1012.86 1012.61 1012.30 1011.97 1011.63 1011.31 1011.01 1010.76 1010.57 1010.42 1010.32 1010.26 1010.21 1010.16 1010.10
1011.04 1011.10 1011.16 1011.22 1011.30 1011.39 1011.48 1011.58 1011.68 1011.77 1011.85 1011.93 1012.00 1012.07 1012.13 1012.20 1012.28 1012.37 1012.47 1012.58 1012.68 1012.77 1012.85 1012.88 1012.87 1012.80 1012.67 1012.47 1012.21 1011.89 1011.53 1011.15 1010.77 1010.41 1010.08 1009.81 1009.60 1009.45 1009.36 1009.30 1009.27 1009.24 1009.20
Thickness
5739 5740 5742 5744 5744 5743 5742 5742 5741 5740 5739 5739 5738 5737 5736 5737 5736 5734 5731 5729 5727 5725 5723 5724 5719 5719 5719 5716 5716 5715 5714 5714 5714 5714 5716 5719 5720 5718 5717 5717 5717 5717 5715
5737 5737 5739 5741 5741 5740 5740 5740 5739 5739 5738 5737 5737 5737 5737 5736 5736 5733 5728 5727 5725 5723 5723 5720 5721 5719 5716 5714 5712 5710 5711 5712 5711 5709 5709 5711 5714 5712 5716 5713 5713 5712 5712
5739 5738 5738 5740 5740 5740 5740 5741 5739 5738 5738 5737 5737 5736 5734 5733 5732 5730 5728 5726 5724 5723 5721 5719 5719 5716 5716 5714 5710 5708 5707 5708 5708 5708 5705 5703 5704 5706 5711 5708 5708 5706 5707
5745 5743 5741 5739 5740 5740 5741 5741 5738 5738 5737 5737 5738 5736 5734 5732 5732 5730 5728 5725 5723 5722 5720 5718 5716 5715 5715 5711 5711 5709 5707 5703 5705 5705 5702 5700 5698 5695 5700 5704 5705 5703 5701
5748 5745 5743 5741 5741 5742 5741 5740 5738 5737 5736 5737 5737 5735 5734 5733 5732 5730 5725 5724 5723 5720 5719 5716 5715 5713 5712 5710 5707 5705 5704 5703 5701 5701 5699 5697 5694 5693 5690 5691 5694 5698 5700
5750 5747 5745 5743 5741 5742 5741 5740 5737 5736 5736 5736 5735 5733 5732 5730 5728 5725 5725 5724 5723 5721 5718 5715 5713 5711 5711 5707 5705 5702 5701 5699 5696 5695 5695 5693 5691 5689 5688 5685 5686 5688 5692
5753 5749 5746 5744 5743 5742 5742 5740 5738 5736 5735 5734 5733 5732 5731 5728 5725 5725 5724 5723 5723 5721 5716 5715 5711 5710 5707 5704 5702 5699 5698 5696 5692 5690 5691 5690 5689 5686 5684 5682 5682 5681 5685
5758 5753 5750 5748 5746 5744 5743 5741 5739 5736 5735 5733 5732 5731 5729 5729 5729 5725 5726 5723 5723 5721 5716 5712 5709 5707 5704 5702 5699 5699 5696 5693 5689 5688 5685 5684 5685 5683 5680 5677 5675 5674 5678
5763 5759 5756 5753 5751 5748 5746 5744 5741 5738 5736 5735 5732 5729 5728 5728 5728 5724 5722 5723 5719 5718 5713 5710 5707 5704 5701 5699 5696 5696 5692 5689 5687 5687 5683 5680 5681 5678 5677 5674 5671 5667 5666
5767 5765 5762 5759 5757 5754 5750 5747 5744 5740 5738 5736 5733 5732 5729 5727 5725 5724 5721 5719 5716 5714 5711 5708 5705 5702 5699 5696 5693 5692 5689 5686 5684 5681 5678 5675 5677 5675 5672 5670 5668 5665 5662
5771 5769 5767 5765 5761 5758 5754 5749 5746 5742 5739 5737 5734 5732 5729 5727 5724 5722 5720 5717 5714 5711 5708 5705 5703 5700 5697 5694 5691 5690 5686 5683 5681 5678 5675 5672 5669 5669 5668 5666 5664 5661 5659
5776 5773 5770 5767 5763 5759 5756 5752 5749 5745 5742 5739 5735 5732 5729 5726 5723 5721 5719 5715 5712 5709 5706 5703 5700 5698 5695 5692 5688 5685 5683 5680 5677 5675 5672 5669 5667 5663 5661 5660 5658 5656 5653
5776 5774 5771 5767 5764 5761 5758 5755 5751 5748 5745 5741 5736 5732 5729 5725 5722 5720 5717 5713 5710 5707 5704 5700 5697 5695 5692 5689 5686 5683 5680 5678 5675 5672 5668 5665 5662 5658 5658 5653 5653 5652 5651
5775 5773 5770 5767 5765 5762 5759 5755 5752 5750 5746 5741 5736 5732 5728 5725 5722 5719 5715 5711 5708 5704 5701 5698 5695 5692 5689 5687 5684 5680 5677 5674 5672 5669 5665 5662 5659 5655 5652 5649 5646 5645 5643
5772 5770 5768 5767 5764 5761 5758 5755 5753 5750 5747 5741 5736 5732 5728 5725 5721 5717 5713 5709 5706 5703 5699 5695 5692 5689 5687 5685 5682 5677 5674 5671 5667 5665 5662 5660 5656 5652 5647 5645 5644 5641 5638
5771 5770 5768 5766 5762 5760 5757 5754 5751 5748 5744 5738 5734 5732 5727 5723 5718 5714 5711 5707 5703 5699 5696 5692 5689 5687 5686 5682 5674 5670 5669 5667 5664 5661 5659 5657 5652 5647 5641 5636 5633 5630 5629
5770 5769 5768 5765 5763 5761 5757 5753 5750 5746 5740 5735 5732 5729 5724 5719 5716 5713 5708 5704 5700 5696 5691 5688 5686 5683 5681 5675 5669 5663 5662 5662 5660 5658 5655 5654 5654 5647 5643 5637 5629 5625 5621
5765 5766 5766 5764 5763 5760 5755 5751 5749 5743 5737 5733 5729 5725 5720 5716 5712 5708 5704 5701 5697 5693 5689 5685 5683 5680 5677 5671 5665 5660 5656 5657 5657 5654 5652 5649 5646 5644 5639 5635 5632 5629 5626
5761 5762 5763 5763 5759 5756 5752 5746 5742 5738 5733 5729 5724 5721 5717 5713 5708 5703 5699 5696 5692 5688 5685 5682 5679 5675 5672 5666 5660 5653 5654 5655 5654 5652 5650 5647 5643 5639 5631 5626 5624 5623 5622
5755 5755 5756 5754 5750 5748 5745 5739 5734 5730 5726 5723 5719 5716 5712 5707 5702 5698 5694 5691 5686 5683 5680 5678 5675 5671 5668 5663 5655 5647 5649 5651 5651 5650 5647 5642 5638 5634 5626 5621 5620 5618 5617
5744 5745 5743 5741 5738 5737 5734 5728 5724 5720 5718 5716 5712 5708 5704 5699 5695 5691 5687 5683 5679 5676 5672 5670 5668 5665 5662 5658 5651 5644 5642 5644 5644 5645 5644 5644 5637 5628 5620 5614 5614 5613 5610
5732 5732 5729 5725 5724 5722 5719 5715 5712 5711 5709 5706 5702 5697 5694 5692 5688 5682 5678 5674 5670 5666 5663 5661 5660 5659 5657 5652 5648 5641 5635 5633 5633 5635 5637 5637 5629 5621 5614 5609 5607 5603 5597
5718 5718 5715 5711 5709 5707 5705 5701 5699 5699 5696 5692 5689 5686 5684 5681 5678 5674 5670 5666 5662 5660 5658 5656 5654 5652 5651 5647 5640 5635 5630 5625 5622 5627 5626 5622 5616 5611 5608 5604 5600 5595 5594
5705 5704 5701 5698 5695 5694 5692 5690 5687 5684 5682 5679 5676 5674 5671 5670 5666 5663 5662 5658 5656 5652 5649 5646 5644 5642 5640 5637 5634 5630 5626 5620 5617 5617 5617 5611 5607 5604 5602 5601 5597 5594 5595
5691 5690 5687 5684 5681 5679 5677 5677 5674 5672 5670 5667 5665 5662 5661 5659 5654 5652 5648 5646 5643 5639 5634 5633 5631 5629 5627 5624 5615 5610 5612 5610 5608 5603 5604 5607 5607 5606 5604 5603 5601 5598 5595
5677 5675 5674 5672 5669 5667 5664 5662 5660 5660 5658 5655 5654 5653 5651 5647 5645 5641 5638 5632 5629 5624 5619 5615 5612 5613 5609 5605 5601 5597 5594 5591 5587 5586 5595 5598 5599 5599 5598 5597 5596 5592 5589